Hourly Weather Roundup
Issued by NWS Central Illinois

Home | Current Version | Previous Version | Text Only | Print | Product List | Glossary On
Versions: 1 2 3 4 5 6 7 8 9 10 11 12 13 14 15 16 17 18 19 20 21 22 23 24 25 26 27 28 29 30 31 32 33 34 35 36 37 38 39 40 41 42 43 44 45 46 47 48 49 50
000
NZUS43 KILX 271310
HWRILX

AREA WEATHER ROUNDUP
NATIONAL WEATHER SERVICE, LINCOLN IL
700 AM CST THU NOV 27 2014


CITY           SKY/WX    TMP DP  RH WIND       PRES   REMARKS
BLOOMINGTON    CLOUDY    24  21  88 NW16      30.34R WCI  11
CHAMPAIGN      CLOUDY    24  20  84 NW13      30.32R FOG     WCI  12
DECATUR        CLOUDY    25  20  81 NW12      30.35R WCI  14
FLORA          CLEAR     23  21  91 NW10      30.39R FOG     WCI  13
GALESBURG      CLOUDY    25  23  90 W8        30.37R WCI  16
JACKSONVILLE   CLOUDY    30  25  82 NW8       30.41R WCI  22
LACON          CLOUDY    24  20  84 NW8       30.36R WCI  16
LAWRENCEVILLE  CLEAR     25  21  85 W10       30.36R FOG     WCI  15
LITCHFIELD     CLOUDY    25  21  86 NW10      30.40R FOG     WCI  15
$$


CITY           SKY/WX    TMP DP  RH WIND       PRES   REMARKS
LINCOLN        MOCLDY    25  22  87 NW5       30.39R FOG     WCI  19
MACOMB         CLOUDY    26  23  87 W12       30.42R WCI  16
MATTOON        PTCLDY    22  18  85 NW10      30.33R WCI  11
MT CARMEL AP   CLEAR     28  23  80 NW8       30.36R WCI  20
OLNEY-NOBLE AP CLEAR     23  19  86 NW8       30.38R FOG     WCI  14
PARIS          CLOUDY    26  23  91 NW12      30.33R FOG     WCI  15
PEORIA         CLOUDY    27  20  75 NW8       30.38R WCI  19
PONTIAC        CLOUDY    24  22  90 NW13      30.34R FOG     WCI  13
RANTOUL        CLOUDY    25  21  86 NW12      30.31S FOG     WCI  14
ROBINSON       CLEAR     25  22  89 NW8       30.36R WCI  16
SPRINGFIELD    CLOUDY    26  22  84 W12       30.39R WCI  16
TAYLORVILLE    CLOUDY    23  19  86 N7        30.38R FOG     WCI  15
$$

...REGIONAL REPORTS...


CITY           SKY/WX    TMP DP  RH WIND       PRES   REMARKS
CHICAGO O`HARE CLOUDY    24  19  81 NW10      30.27R WCI  14
KANKAKEE       CLOUDY   N/A N/A N/A W10       30.31R HAZE
MOLINE         CLOUDY    25  19  78 NW17G23   30.38R WCI  12
MOUNT VERNON   CLOUDY    27  19  74 CALM      30.39R
PITTSFIELD     CLOUDY    29  24  82 NW8       30.43R WCI  21
QUINCY         CLOUDY    27  22  81 NW16      30.42R WCI  15
ROCKFORD       FLURRIES  23  18  81 NW9       30.33R WCI  13
$$


CITY           SKY/WX    TMP DP  RH WIND       PRES   REMARKS
BURLINGTON     CLOUDY    22  18  85 NW16G22   30.41R WCI   8
CEDAR RAPIDS   CLOUDY    15  12  88 NW18      30.41R WCI  -2
DES MOINES     PTCLDY     6  -2  69 NW10      30.51R WCI  -9
KIRKSVILLE     CLOUDY    23  18  81 N12       30.47R WCI  12
OTTUMWA        CLOUDY    15  10  80 NW17      30.46R WCI  -1
ST LOUIS       CLOUDY    31  25  78 NW13      30.42R WCI  21
$$


CITY           SKY/WX    TMP DP  RH WIND       PRES   REMARKS
TERRE HAUTE    CLOUDY    25  20  81 NW8       30.32R HAZE    WCI  16
EVANSVILLE     CLOUDY    30  23  75 NW12G18   30.36R WCI  20
INDIANAPOLIS   FLURRIES  25  20  81 NW6       30.25R WCI  18
LAFAYETTE      CLOUDY    27  24  89 NW9       30.28R FOG     WCI  18
MADISON        MOCLDY    20  14  77 NW8       30.31R WCI  10
MILWAUKEE      MOCLDY    24  17  74 NW12      30.26R WCI  13
$$




USA.gov is the U.S. government's official web portal to all federal, state and local government web resources and services.